Retour au catalogue

STARLINK-37639

ActifCommunicationsSSO
NORAD 69146·PAYLOAD·🇺🇸 United States

Lancé May 20, 2026 depuis Vandenberg Space Force Base

Loading…

Prochains Passages (prochaines 24 heures)

TLE

FraisSource: CelesTrak SupGP

Époque: Sep 14, 2026, 23:25 UTC

1 69146C 26110Y   26257.97618056  .00069362  00000+0  21531-2 0  2576
2 69146  97.2852  93.1838 0001660  92.8079 284.5646 15.33403801    15

Suivez STARLINK-37639 en temps réel avec AllMySat

Download on the App Store